Wind_Speed
2 3 4 4 4 5 5 6 7 7 6 6 6 6 5 5 5 6 6 6 6 6 6 6 6 6 6 6 6 6 6 6 6 7 7 7 8 8 8 9 9 10 10
4 4 4 5 5 4 5 5 6 6 6 5 5 5 5 5 5 5 6 6 6 6 6 6 6 6 6 6 6 6 6 5 6 6 7 7 7 7 8 9 9 10 9
5 5 5 5 5 5 4 5 5 5 5 5 4 4 4 4 4 4 5 5 6 6 6 6 6 5 5 5 6 5 4 5 5 6 6 6 6 7 8 8 9 9 9
5 6 6 6 6 6 5 5 5 5 5 4 3 3 3 3 3 4 4 5 6 6 6 6 5 5 5 5 5 5 4 4 4 5 5 5 5 6 7 8 8 8 8
5 6 6 7 7 6 6 6 5 5 5 3 3 2 2 3 3 4 4 5 5 6 6 5 5 5 5 4 4 4 4 4 4 4 4 4 5 5 6 7 7 7 8
7 7 7 7 7 7 7 7 6 6 5 3 2 1 1 2 2 3 4 4 5 5 5 5 4 4 4 4 4 3 4 4 4 3 4 4 4 5 6 6 6 6 7
8 8 8 8 8 8 7 7 7 6 5 4 3 2 0 1 1 2 3 4 5 5 5 5 4 3 3 3 3 2 2 3 3 3 3 3 4 4 5 5 5 5 5
8 10 10 9 9 9 9 8 7 7 6 4 3 2 1 1 2 3 3 4 5 5 5 5 4 3 3 2 3 2 2 2 1 2 2 3 3 4 4 4 4 4 4
10 11 11 11 10 10 9 9 9 8 6 5 4 3 3 3 3 3 4 4 5 5 5 4 3 2 2 2 2 1 1 1 1 1 1 2 3 3 4 4 4 4 4
10 11 12 13 12 11 10 10 9 9 7 6 5 4 4 4 4 4 4 5 5 5 4 3 3 2 2 2 2 1 1 0 0 1 2 2 3 3 3 4 4 4 4
11 12 13 14 13 13 12 11 10 10 8 7 6 5 5 5 5 5 5 6 5 5 4 4 3 3 2 2 3 3 2 1 1 1 2 2 3 3 3 4 4 5 5
13 14 15 14 14 14 13 12 12 11 9 8 7 6 6 6 6 6 6 6 6 5 5 4 3 3 3 3 3 3 3 3 2 2 2 2 3 4 4 4 5 6 6
14 15 17 16 16 15 14 14 13 12 11 9 8 7 7 7 7 7 6 6 6 6 5 4 4 3 3 3 3 3 3 3 3 3 3 2 3 4 5 5 5 6 6
15 16 18 19 18 17 16 16 15 14 12 11 9 8 8 7 7 7 6 6 6 5 5 4 3 3 2 2 2 3 3 3 4 4 4 3 4 4 5 6 7 7 7
13 14 16 18 19 18 17 17 16 15 14 12 11 10 8 8 7 6 6 6 6 5 4 3 3 3 2 2 2 2 3 3 4 4 5 5 5 5 5 7 8 9 9
12 13 14 17 20 20 19 18 17 16 14 13 11 11 9 8 7 6 6 5 5 5 4 3 3 3 3 2 2 3 3 3 4 4 5 5 5 6 6 7 8 8 9
11 12 14 17 19 21 20 19 19 17 16 14 12 11 10 9 9 7 6 5 5 4 4 3 3 3 3 3 3 2 2 3 3 3 4 4 5 5 6 7 7 8 9
13 14 16 17 19 21 20 21 20 18 17 16 14 12 11 10 10 9 8 6 6 5 4 3 3 3 3 3 2 2 2 3 3 3 3 4 4 5 6 6 6 7 8
15 15 16 17 19 21 22 21 20 19 17 17 16 14 12 12 11 10 9 8 7 6 5 4 3 3 3 3 2 2 2 3 3 3 3 3 4 4 5 5 6 7 7
15 15 17 17 19 22 23 22 20 19 19 17 16 15 14 13 12 11 10 9 8 6 6 5 4 4 3 3 3 3 3 2 2 2 2 3 3 4 4 5 6 6 7
13 14 17 18 20 22 22 22 21 20 19 18 17 16 14 13 13 12 11 10 9 8 7 6 5 5 4 3 3 3 2 2 1 1 1 2 3 3 4 4 5 6 7
12 13 15 18 20 22 22 22 21 21 20 19 17 16 15 14 14 13 12 11 10 9 8 7 6 5 5 4 3 3 2 2 2 2 2 2 3 4 4 4 5 6 6
11 13 13 16 20 21 21 22 22 21 20 19 18 17 16 15 15 14 13 12 10 9 8 8 7 6 5 4 3 2 2 2 2 2 3 3 4 4 5 5 6 6 7
10 12 13 17 19 20 20 21 22 22 20 19 19 18 17 16 16 16 14 13 11 10 9 8 8 7 6 5 4 3 3 2 2 3 4 4 5 5 5 6 7 7 8
8 11 14 17 19 20 20 20 22 22 21 20 20 19 17 17 17 16 15 14 13 11 10 9 8 7 6 5 5 4 4 4 4 4 5 5 6 6 7 7 8 9 9
6 9 12 15 17 19 20 21 22 22 21 20 19 18 18 17 17 16 15 14 13 12 10 9 8 7 7 6 6 5 5 5 6 6 6 6 7 7 8 9 9 10 11
Wind_Direction
228 199 196 192 182 159 137 125 112 106 97 87 75 64 58 49 46 45 43 42 42 46 50 53 53 54 57 60 61 63 65 72 80 84 89 91 94 99 103 105 107 108 106
243 219 212 206 194 176 153 135 120 116 107 98 85 69 61 53 47 43 42 40 39 41 43 45 46 46 51 55 55 56 62 69 75 81 88 97 101 104 105 108 109 108 107
247 230 224 218 207 191 173 152 135 127 115 104 92 78 67 55 47 41 40 39 37 35 34 35 37 40 45 48 52 54 62 72 77 79 86 99 107 109 110 111 111 109 107
250 235 229 223 215 203 188 170 153 141 127 114 101 85 70 56 43 34 31 32 31 30 28 30 32 35 39 43 49 52 57 69 80 84 89 98 109 116 117 116 116 112 109
242 235 231 223 218 210 202 189 171 161 148 133 121 96 68 52 35 26 23 23 25 25 24 26 30 30 31 36 43 45 47 68 83 87 92 100 110 123 124 122 118 114 113
238 233 233 225 220 217 213 202 186 175 166 155 146 126 66 45 30 19 13 10 12 14 15 16 21 22 24 27 35 39 50 66 79 88 93 103 113 124 129 126 121 119 118
240 231 229 226 219 216 212 208 200 189 181 175 177 183 204 1 1 354 352 356 358 1 2 1 3 9 16 20 26 29 38 54 72 85 94 109 123 134 136 134 130 127 125
245 237 231 223 220 216 212 211 210 204 196 192 199 218 247 266 297 326 332 341 345 347 348 349 349 357 1 5 12 18 39 47 68 86 99 106 129 146 146 147 144 141 138
245 238 231 223 218 215 213 214 216 213 209 206 215 237 259 262 281 307 318 324 331 335 337 336 338 342 344 343 346 350 359 26 53 128 130 131 143 152 162 170 170 164 160
243 238 233 228 222 216 215 216 214 214 216 218 228 247 259 266 276 289 301 309 318 325 325 322 321 314 310 314 300 294 276 307 61 152 158 162 168 175 182 189 196 191 187
246 237 232 227 222 219 217 217 216 215 218 224 233 244 251 260 268 278 289 299 306 308 305 308 312 299 288 287 273 261 244 233 212 191 182 178 184 193 193 200 208 208 207
253 240 231 226 222 221 218 218 217 217 220 225 233 239 246 254 263 275 282 291 294 294 295 294 295 281 277 274 262 253 241 234 228 215 207 195 203 205 203 209 217 220 222
254 239 231 226 222 221 222 220 218 217 220 224 232 237 243 253 263 273 276 283 287 288 288 284 279 266 260 258 256 250 245 240 234 223 209 208 219 218 219 220 227 231 233
255 245 232 223 221 221 220 219 218 218 219 220 224 233 243 253 266 271 269 273 281 282 283 282 261 246 245 250 253 248 242 240 235 229 226 230 236 235 238 238 237 241 243
253 245 231 223 220 218 217 218 217 217 219 221 225 230 240 252 258 267 267 265 268 272 271 268 248 222 232 238 235 242 243 243 238 231 231 243 250 246 251 252 249 249 251
260 242 228 221 218 216 215 214 215 217 218 222 226 229 236 241 241 249 258 254 252 259 262 261 241 228 239 240 237 251 255 248 245 244 244 248 249 252 257 262 260 254 254
255 241 224 221 219 216 214 214 213 216 218 222 224 228 232 236 235 240 247 241 237 245 253 254 238 227 237 241 240 248 250 250 252 245 243 247 251 254 260 267 271 265 258
255 241 225 222 218 215 213 214 215 218 221 222 224 227 230 234 235 237 236 236 234 238 246 243 234 234 233 236 233 234 243 251 248 244 247 256 259 261 267 274 274 272 269
260 242 226 220 216 214 213 213 213 218 220 221 223 225 229 233 229 229 229 231 232 232 234 231 229 234 227 223 216 219 232 239 244 246 252 256 263 268 272 277 280 279 276
253 239 230 221 216 212 210 210 213 217 219 220 222 224 228 230 227 225 226 226 226 227 229 229 226 225 220 212 204 205 216 231 233 237 244 259 271 278 280 281 283 283 283
252 239 229 220 212 210 208 209 211 214 218 218 221 222 225 225 221 221 222 223 225 226 226 225 219 212 209 203 202 200 201 210 222 249 265 272 278 285 289 290 290 290 288
247 233 230 220 209 207 206 207 208 212 214 214 217 220 219 218 217 217 219 220 223 222 219 217 212 206 200 198 194 187 191 203 225 254 282 286 286 288 294 298 300 296 294
241 227 227 219 210 207 204 207 208 209 209 212 215 216 215 214 213 213 213 216 217 213 210 203 199 195 198 201 200 202 212 228 238 261 279 286 291 290 291 295 300 301 300
239 224 220 212 209 204 200 204 205 204 208 212 210 209 209 211 211 210 211 214 213 209 206 201 200 201 205 208 214 224 232 247 263 274 280 282 289 295 298 299 301 301 303
237 216 213 207 205 200 197 199 201 201 205 204 203 204 207 210 209 209 210 212 209 205 204 204 204 208 214 219 226 238 250 267 279 283 286 286 289 293 298 301 299 299 301
226 200 196 193 192 193 193 195 197 197 200 201 200 201 204 207 206 205 207 206 205 204 206 207 209 215 224 231 239 250 259 270 280 283 287 290 292 294 296 300 301 301 300
Height
5875 5876 5877 5877 5878 5879 5879 5880 5880 5881 5883 5884 5885 5886 5887 5887 5888 5888 5889 5889 5889 5889 5889 5889 5890 5890 5890 5890 5890 5890 5890 5890 5890 5890 5890 5890 5890 5890 5891 5891 5892 5892 5892
5875 5876 5876 5877 5878 5879 5879 5880 5881 5882 5883 5884 5885 5886 5887 5888 5889 5889 5889 5890 5890 5890 5890 5890 5890 5890 5890 5890 5891 5891 5891 5891 5890 5890 5890 5891 5891 5892 5892 5892 5893 5893 5894
5874 5875 5876 5877 5877 5878 5879 5880 5881 5882 5883 5884 5885 5886 5887 5888 5889 5889 5890 5890 5890 5891 5891 5891 5891 5891 5891 5891 5891 5891 5891 5891 5891 5891 5892 5892 5892 5893 5893 5894 5894 5895 5895
5873 5874 5875 5876 5877 5877 5878 5879 5880 5881 5883 5884 5885 5886 5887 5888 5889 5890 5890 5890 5891 5891 5891 5891 5891 5891 5891 5891 5892 5892 5892 5892 5892 5892 5892 5893 5893 5894 5894 5895 5895 5896 5896
5872 5873 5874 5875 5876 5877 5878 5879 5880 5881 5882 5884 5885 5886 5887 5888 5889 5889 5890 5890 5891 5891 5891 5891 5892 5892 5892 5892 5892 5892 5892 5892 5893 5893 5893 5894 5894 5895 5895 5896 5896 5897 5897
5871 5872 5873 5874 5875 5876 5877 5878 5879 5880 5882 5883 5884 5886 5887 5888 5888 5889 5890 5890 5891 5891 5891 5892 5892 5892 5892 5892 5892 5892 5892 5893 5893 5893 5894 5894 5894 5895 5896 5896 5897 5897 5898
5870 5871 5872 5873 5874 5875 5876 5877 5879 5880 5881 5882 5884 5885 5886 5887 5888 5889 5889 5890 5891 5891 5891 5891 5892 5892 5892 5892 5892 5892 5892 5893 5893 5894 5894 5894 5895 5896 5896 5897 5898 5898 5899
5868 5869 5870 5871 5872 5874 5875 5877 5878 5879 5880 5882 5883 5884 5885 5886 5887 5888 5889 5890 5890 5891 5891 5891 5891 5892 5892 5892 5892 5892 5892 5893 5893 5894 5894 5895 5895 5896 5897 5898 5898 5899 5899
5866 5867 5868 5869 5871 5872 5874 5876 5877 5879 5880 5881 5882 5883 5885 5885 5886 5887 5888 5889 5889 5890 5890 5890 5891 5891 5891 5891 5892 5892 5892 5893 5893 5893 5894 5895 5895 5896 5897 5898 5899 5899 5900
5864 5865 5866 5867 5869 5871 5873 5874 5876 5878 5879 5880 5881 5883 5884 5884 5885 5886 5887 5888 5888 5889 5889 5890 5890 5890 5890 5891 5891 5891 5892 5892 5893 5893 5894 5894 5895 5896 5897 5898 5898 5899 5899
5861 5862 5864 5865 5867 5869 5871 5873 5875 5876 5878 5879 5880 5882 5882 5883 5884 5885 5886 5887 5887 5888 5889 5889 5889 5889 5890 5890 5890 5891 5891 5892 5892 5893 5894 5894 5895 5896 5896 5897 5898 5899 5899
5858 5859 5860 5863 5865 5867 5869 5871 5873 5875 5876 5878 5879 5880 5881 5882 5883 5884 5885 5886 5886 5887 5887 5888 5888 5888 5889 5889 5889 5890 5890 5891 5892 5892 5893 5894 5894 5895 5896 5897 5897 5898 5898
5854 5855 5857 5860 5862 5864 5867 5869 5871 5873 5875 5877 5878 5879 5880 5881 5882 5883 5884 5884 5885 5886 5886 5887 5887 5887 5888 5888 5888 5889 5890 5890 5891 5892 5892 5893 5894 5894 5895 5896 5896 5897 5898
5850 5852 5853 5856 5858 5861 5864 5866 5868 5871 5873 5875 5876 5877 5879 5879 5880 5881 5882 5883 5884 5884 5885 5886 5886 5887 5887 5887 5888 5888 5889 5890 5890 5891 5892 5892 5893 5893 5894 5894 5895 5896 5896
5846 5848 5849 5852 5855 5858 5861 5864 5866 5868 5870 5872 5874 5876 5877 5878 5879 5880 5881 5882 5882 5883 5884 5885 5885 5886 5887 5887 5887 5888 5888 5889 5889 5890 5891 5891 5892 5892 5893 5893 5893 5894 5894
5842 5843 5846 5848 5851 5854 5857 5860 5863 5866 5868 5870 5872 5874 5875 5876 5878 5879 5880 5881 5881 5882 5883 5884 5885 5885 5886 5886 5887 5887 5887 5888 5888 5889 5889 5890 5890 5891 5892 5892 5892 5892 5893
5838 5840 5842 5845 5847 5850 5854 5857 5860 5863 5866 5868 5870 5872 5873 5875 5876 5877 5878 5879 5880 5881 5882 5883 5884 5884 5885 5886 5886 5886 5887 5887 5887 5888 5889 5889 5889 5890 5890 5890 5891 5891 5891
5834 5836 5838 5841 5843 5848 5851 5855 5858 5861 5863 5865 5868 5870 5872 5873 5875 5876 5877 5878 5879 5880 5881 5882 5883 5884 5884 5885 5885 5886 5886 5886 5887 5887 5888 5888 5888 5888 5889 5889 5889 5889 5889
5830 5831 5834 5837 5840 5844 5848 5851 5855 5858 5860 5863 5865 5867 5869 5871 5873 5874 5876 5877 5878 5879 5881 5882 5882 5883 5884 5884 5885 5885 5886 5886 5886 5886 5887 5887 5887 5887 5888 5888 5888 5888 5888
5825 5826 5829 5833 5836 5840 5844 5848 5851 5854 5857 5860 5863 5865 5867 5869 5871 5873 5874 5876 5877 5878 5879 5881 5881 5882 5883 5884 5884 5884 5885 5885 5886 5886 5886 5886 5886 5886 5886 5886 5886 5886 5886
5820 5821 5824 5828 5832 5836 5840 5844 5848 5851 5855 5858 5860 5863 5865 5867 5869 5871 5873 5874 5876 5877 5878 5879 5880 5881 5882 5883 5884 5884 5885 5885 5885 5885 5885 5886 5886 5885 5885 5885 5885 5885 5885
5816 5818 5821 5824 5828 5832 5836 5841 5844 5848 5852 5855 5858 5860 5863 5865 5867 5869 5871 5873 5874 5876 5877 5878 5879 5880 5881 5882 5883 5884 5884 5885 5885 5885 5885 5885 5885 5884 5884 5884 5884 5884 5883
5813 5815 5818 5820 5824 5828 5833 5837 5841 5845 5849 5852 5855 5858 5861 5863 5865 5868 5869 5871 5873 5874 5876 5877 5878 5880 5881 5882 5882 5883 5884 5884 5884 5884 5884 5884 5884 5883 5883 5883 5883 5882 5882
5812 5813 5815 5818 5821 5825 5829 5834 5838 5842 5846 5850 5853 5856 5858 5861 5863 5866 5867 5869 5871 5873 5875 5876 5877 5879 5880 5881 5881 5882 5883 5883 5883 5883 5883 5883 5883 5882 5882 5881 5881 5880 5880
5810 5811 5812 5815 5819 5823 5827 5831 5836 5840 5844 5847 5850 5853 5856 5859 5861 5864 5866 5868 5870 5872 5873 5875 5876 5878 5879 5880 5880 5881 5882 5882 5882 5882 5882 5882 5881 5881 5880 5880 5879 5878 5878
5810 5810 5811 5814 5817 5821 5825 5829 5834 5838 5842 5845 5848 5851 5854 5857 5860 5862 5864 5867 5869 5870 5872 5874 5875 5876 5877 5878 5879 5880 5880 5880 5881 5881 5881 5880 5880 5879 5879 5878 5877 5876 5875